Precipitable_Water
0.28 0.30 0.30 0.31 0.31 0.31 0.31 0.31 0.31 0.32 0.32 0.31 0.31 0.32 0.32 0.33 0.33 0.32 0.33 0.33 0.32 0.31 0.30 0.29 0.28 0.28 0.28 0.27 0.26 0.26 0.26 0.25 0.25 0.25 0.25 0.25 0.25 0.24 0.24 0.24 0.24 0.24 0.24 0.24 0.24 0.25 0.26 0.27 0.27 0.27 0.27 0.26 0.25 0.23 0.23 0.23 0.23 0.22 0.22 0.22 0.21 0.22 0.23 0.24 0.25 0.25 0.22 0.21 0.21 0.20 0.20 0.20 0.20 0.19 0.18 0.18 0.17 0.17 0.17 0.16 0.17 0.17 0.17 0.18 0.17
0.29 0.29 0.31 0.31 0.31 0.32 0.32 0.32 0.32 0.31 0.31 0.31 0.31 0.32 0.33 0.34 0.34 0.34 0.34 0.33 0.33 0.32 0.31 0.30 0.29 0.29 0.28 0.27 0.26 0.25 0.24 0.24 0.24 0.24 0.24 0.23 0.23 0.23 0.23 0.23 0.23 0.23 0.23 0.23 0.22 0.22 0.22 0.23 0.24 0.25 0.26 0.26 0.25 0.25 0.24 0.24 0.23 0.22 0.22 0.21 0.21 0.21 0.21 0.23 0.25 0.25 0.22 0.21 0.19 0.19 0.19 0.20 0.19 0.19 0.18 0.18 0.17 0.17 0.17 0.17 0.17 0.17 0.18 0.18 0.17
0.28 0.29 0.30 0.31 0.32 0.32 0.33 0.33 0.33 0.33 0.33 0.33 0.34 0.34 0.35 0.35 0.35 0.34 0.34 0.34 0.33 0.33 0.32 0.30 0.30 0.29 0.28 0.26 0.25 0.25 0.25 0.25 0.24 0.23 0.23 0.23 0.23 0.23 0.23 0.23 0.22 0.22 0.22 0.22 0.22 0.22 0.21 0.21 0.21 0.21 0.21 0.22 0.23 0.23 0.23 0.23 0.22 0.21 0.21 0.20 0.19 0.20 0.20 0.22 0.23 0.24 0.21 0.21 0.21 0.19 0.18 0.17 0.19 0.18 0.18 0.18 0.18 0.17 0.17 0.17 0.18 0.19 0.17 0.17 0.16
0.28 0.29 0.29 0.31 0.32 0.32 0.33 0.33 0.34 0.34 0.35 0.35 0.35 0.36 0.36 0.35 0.35 0.35 0.35 0.34 0.33 0.33 0.31 0.30 0.29 0.28 0.28 0.27 0.26 0.25 0.23 0.23 0.23 0.23 0.23 0.23 0.22 0.22 0.22 0.21 0.21 0.21 0.21 0.20 0.20 0.20 0.20 0.20 0.20 0.19 0.19 0.19 0.19 0.19 0.20 0.21 0.21 0.21 0.20 0.20 0.19 0.18 0.18 0.19 0.22 0.22 0.22 0.21 0.18 0.18 0.18 0.17 0.16 0.17 0.18 0.18 0.18 0.18 0.18 0.18 0.18 0.17 0.17 0.16 0.16
0.29 0.29 0.30 0.31 0.32 0.32 0.33 0.34 0.35 0.35 0.36 0.36 0.37 0.37 0.37 0.36 0.37 0.36 0.35 0.34 0.32 0.31 0.29 0.29 0.27 0.26 0.25 0.25 0.23 0.22 0.22 0.21 0.21 0.21 0.21 0.21 0.21 0.21 0.20 0.21 0.20 0.20 0.19 0.19 0.19 0.19 0.19 0.19 0.19 0.19 0.18 0.19 0.19 0.18 0.18 0.18 0.20 0.21 0.21 0.20 0.19 0.18 0.17 0.18 0.20 0.22 0.22 0.22 0.20 0.18 0.17 0.16 0.16 0.16 0.17 0.17 0.18 0.18 0.18 0.18 0.17 0.17 0.16 0.15 0.15
0.30 0.31 0.31 0.32 0.33 0.34 0.35 0.35 0.35 0.36 0.36 0.37 0.38 0.38 0.38 0.38 0.38 0.37 0.35 0.34 0.32 0.30 0.29 0.28 0.26 0.25 0.23 0.21 0.19 0.19 0.18 0.18 0.18 0.18 0.18 0.18 0.19 0.20 0.20 0.20 0.20 0.19 0.19 0.19 0.18 0.18 0.18 0.18 0.18 0.18 0.18 0.18 0.18 0.18 0.18 0.18 0.18 0.18 0.19 0.20 0.19 0.19 0.18 0.17 0.17 0.20 0.21 0.21 0.22 0.21 0.20 0.17 0.16 0.17 0.16 0.14 0.18 0.18 0.17 0.17 0.17 0.16 0.16 0.15 0.15
0.32 0.32 0.33 0.33 0.34 0.34 0.35 0.35 0.36 0.36 0.37 0.38 0.39 0.39 0.39 0.39 0.38 0.37 0.35 0.34 0.33 0.31 0.30 0.28 0.25 0.24 0.23 0.22 0.21 0.20 0.19 0.20 0.20 0.20 0.20 0.19 0.19 0.19 0.19 0.19 0.19 0.18 0.18 0.17 0.17 0.17 0.17 0.17 0.17 0.17 0.17 0.17 0.17 0.17 0.17 0.18 0.18 0.18 0.18 0.18 0.18 0.19 0.19 0.17 0.17 0.18 0.20 0.21 0.21 0.21 0.21 0.21 0.20 0.17 0.15 0.15 0.14 0.16 0.17 0.16 0.16 0.16 0.16 0.15 0.15
0.31 0.32 0.33 0.34 0.34 0.34 0.34 0.35 0.36 0.37 0.38 0.39 0.39 0.39 0.38 0.38 0.37 0.36 0.35 0.33 0.32 0.31 0.29 0.28 0.25 0.24 0.24 0.23 0.23 0.21 0.21 0.20 0.21 0.21 0.21 0.21 0.20 0.19 0.19 0.19 0.18 0.18 0.17 0.17 0.17 0.17 0.16 0.16 0.16 0.16 0.16 0.16 0.16 0.15 0.16 0.16 0.17 0.18 0.19 0.18 0.18 0.18 0.18 0.18 0.17 0.17 0.17 0.19 0.21 0.20 0.20 0.21 0.20 0.20 0.19 0.16 0.15 0.14 0.15 0.17 0.17 0.16 0.16 0.15 0.15
0.33 0.32 0.33 0.34 0.34 0.35 0.36 0.36 0.38 0.38 0.39 0.38 0.38 0.38 0.38 0.37 0.37 0.36 0.34 0.33 0.32 0.30 0.28 0.28 0.27 0.27 0.26 0.25 0.23 0.23 0.23 0.22 0.22 0.22 0.21 0.21 0.20 0.19 0.19 0.19 0.18 0.18 0.17 0.17 0.17 0.17 0.16 0.16 0.16 0.16 0.16 0.16 0.16 0.16 0.15 0.15 0.15 0.16 0.16 0.17 0.17 0.17 0.17 0.17 0.17 0.17 0.18 0.18 0.19 0.19 0.19 0.19 0.19 0.19 0.19 0.18 0.16 0.14 0.14 0.15 0.14 0.16 0.16 0.15 0.15
0.34 0.34 0.34 0.35 0.36 0.36 0.38 0.38 0.38 0.38 0.39 0.39 0.38 0.38 0.38 0.37 0.36 0.35 0.33 0.32 0.30 0.29 0.29 0.29 0.28 0.28 0.26 0.26 0.24 0.23 0.24 0.23 0.22 0.21 0.21 0.21 0.20 0.20 0.20 0.19 0.18 0.18 0.17 0.17 0.17 0.17 0.17 0.16 0.16 0.16 0.16 0.16 0.16 0.15 0.15 0.15 0.15 0.15 0.15 0.15 0.16 0.16 0.17 0.17 0.17 0.17 0.18 0.19 0.19 0.20 0.19 0.18 0.18 0.18 0.18 0.17 0.17 0.16 0.14 0.14 0.15 0.14 0.13 0.14 0.15
0.34 0.34 0.35 0.35 0.37 0.38 0.38 0.37 0.37 0.38 0.38 0.38 0.38 0.38 0.38 0.37 0.35 0.31 0.27 0.26 0.26 0.26 0.26 0.27 0.27 0.27 0.26 0.25 0.25 0.24 0.23 0.23 0.22 0.22 0.22 0.21 0.20 0.20 0.20 0.20 0.19 0.19 0.18 0.18 0.18 0.18 0.17 0.17 0.17 0.16 0.16 0.16 0.16 0.15 0.15 0.15 0.15 0.15 0.15 0.15 0.14 0.14 0.15 0.16 0.17 0.17 0.17 0.18 0.19 0.20 0.20 0.19 0.17 0.16 0.16 0.16 0.16 0.15 0.15 0.15 0.15 0.15 0.14 0.14 0.14
0.34 0.34 0.35 0.36 0.37 0.37 0.38 0.37 0.37 0.38 0.38 0.38 0.37 0.37 0.35 0.32 0.27 0.23 0.22 0.22 0.24 0.25 0.25 0.25 0.26 0.26 0.26 0.26 0.25 0.25 0.25 0.24 0.23 0.22 0.22 0.22 0.22 0.21 0.21 0.21 0.20 0.19 0.19 0.18 0.18 0.19 0.18 0.17 0.17 0.17 0.17 0.17 0.16 0.16 0.16 0.16 0.16 0.16 0.15 0.15 0.14 0.14 0.14 0.14 0.15 0.16 0.16 0.17 0.18 0.20 0.20 0.20 0.19 0.18 0.17 0.17 0.16 0.16 0.15 0.14 0.15 0.15 0.15 0.15 0.15
0.34 0.34 0.35 0.36 0.37 0.37 0.37 0.38 0.37 0.37 0.36 0.35 0.34 0.31 0.28 0.25 0.23 0.22 0.21 0.21 0.22 0.23 0.23 0.24 0.25 0.25 0.25 0.25 0.25 0.26 0.25 0.25 0.24 0.23 0.23 0.23 0.23 0.22 0.21 0.20 0.20 0.18 0.18 0.18 0.19 0.19 0.18 0.18 0.17 0.17 0.17 0.17 0.17 0.16 0.16 0.16 0.16 0.16 0.15 0.15 0.15 0.14 0.14 0.14 0.14 0.14 0.16 0.16 0.17 0.20 0.21 0.20 0.19 0.19 0.18 0.18 0.17 0.17 0.16 0.15 0.15 0.16 0.14 0.14 0.15
0.35 0.36 0.37 0.38 0.38 0.38 0.38 0.37 0.36 0.35 0.33 0.31 0.29 0.27 0.24 0.23 0.22 0.21 0.20 0.21 0.22 0.21 0.21 0.22 0.23 0.24 0.24 0.24 0.24 0.25 0.25 0.26 0.25 0.24 0.24 0.23 0.23 0.22 0.21 0.21 0.20 0.19 0.19 0.18 0.19 0.19 0.18 0.18 0.17 0.17 0.17 0.17 0.17 0.17 0.17 0.16 0.16 0.16 0.16 0.15 0.15 0.15 0.15 0.15 0.14 0.14 0.15 0.17 0.18 0.19 0.20 0.21 0.20 0.20 0.19 0.18 0.17 0.17 0.16 0.15 0.15 0.15 0.15 0.14 0.15
0.37 0.38 0.38 0.39 0.39 0.38 0.36 0.35 0.33 0.31 0.29 0.27 0.26 0.24 0.23 0.22 0.22 0.21 0.20 0.19 0.18 0.18 0.19 0.21 0.23 0.23 0.23 0.22 0.22 0.24 0.26 0.26 0.26 0.25 0.24 0.23 0.23 0.22 0.22 0.22 0.20 0.19 0.19 0.19 0.19 0.19 0.18 0.17 0.17 0.17 0.17 0.16 0.16 0.16 0.16 0.17 0.17 0.16 0.16 0.16 0.16 0.16 0.15 0.15 0.15 0.14 0.14 0.15 0.17 0.19 0.20 0.21 0.21 0.20 0.19 0.18 0.18 0.17 0.17 0.16 0.15 0.14 0.14 0.15 0.14
0.38 0.38 0.38 0.38 0.38 0.36 0.33 0.31 0.30 0.28 0.26 0.25 0.24 0.24 0.23 0.22 0.21 0.20 0.19 0.18 0.17 0.17 0.16 0.16 0.17 0.18 0.20 0.20 0.21 0.24 0.26 0.27 0.25 0.24 0.24 0.24 0.22 0.23 0.23 0.22 0.21 0.20 0.20 0.19 0.19 0.18 0.17 0.17 0.16 0.16 0.16 0.16 0.16 0.16 0.16 0.16 0.17 0.16 0.16 0.16 0.16 0.16 0.15 0.15 0.15 0.15 0.15 0.15 0.17 0.19 0.20 0.21 0.21 0.20 0.20 0.19 0.18 0.18 0.18 0.17 0.16 0.15 0.14 0.13 0.14
0.38 0.38 0.37 0.36 0.34 0.32 0.30 0.28 0.25 0.24 0.24 0.24 0.24 0.24 0.22 0.21 0.21 0.20 0.19 0.18 0.17 0.16 0.15 0.15 0.16 0.17 0.17 0.18 0.19 0.22 0.23 0.23 0.23 0.22 0.22 0.22 0.23 0.23 0.22 0.22 0.21 0.20 0.19 0.19 0.18 0.18 0.18 0.17 0.17 0.16 0.16 0.16 0.16 0.16 0.16 0.16 0.16 0.17 0.16 0.16 0.16 0.16 0.16 0.15 0.16 0.15 0.15 0.16 0.17 0.19 0.20 0.21 0.21 0.20 0.20 0.19 0.19 0.19 0.18 0.18 0.17 0.16 0.16 0.14 0.13
0.37 0.37 0.35 0.32 0.29 0.27 0.25 0.24 0.24 0.24 0.24 0.25 0.25 0.24 0.23 0.23 0.22 0.20 0.19 0.17 0.16 0.15 0.15 0.16 0.17 0.16 0.16 0.17 0.18 0.19 0.21 0.21 0.21 0.21 0.21 0.22 0.23 0.23 0.22 0.21 0.20 0.20 0.19 0.19 0.19 0.18 0.18 0.17 0.17 0.16 0.16 0.16 0.16 0.16 0.16 0.16 0.16 0.16 0.17 0.16 0.16 0.16 0.16 0.16 0.16 0.16 0.16 0.16 0.17 0.19 0.20 0.20 0.21 0.20 0.19 0.19 0.19 0.19 0.19 0.18 0.18 0.17 0.17 0.15 0.15
0.34 0.31 0.29 0.27 0.25 0.24 0.24 0.24 0.24 0.25 0.26 0.26 0.25 0.24 0.24 0.23 0.22 0.20 0.18 0.16 0.15 0.16 0.16 0.16 0.15 0.14 0.15 0.16 0.17 0.19 0.20 0.21 0.22 0.22 0.22 0.21 0.21 0.21 0.20 0.20 0.19 0.18 0.19 0.19 0.18 0.18 0.18 0.17 0.17 0.16 0.17 0.17 0.16 0.16 0.16 0.16 0.16 0.16 0.16 0.16 0.16 0.16 0.16 0.16 0.17 0.17 0.16 0.16 0.16 0.18 0.19 0.20 0.20 0.20 0.19 0.19 0.19 0.19 0.19 0.19 0.18 0.18 0.17 0.17 0.16
0.28 0.27 0.25 0.24 0.24 0.24 0.24 0.24 0.25 0.26 0.26 0.26 0.25 0.24 0.23 0.22 0.21 0.19 0.17 0.15 0.15 0.16 0.15 0.13 0.13 0.14 0.16 0.17 0.18 0.18 0.18 0.18 0.18 0.18 0.19 0.19 0.19 0.20 0.20 0.19 0.19 0.20 0.20 0.19 0.19 0.18 0.17 0.17 0.16 0.16 0.17 0.17 0.16 0.16 0.16 0.16 0.16 0.17 0.17 0.16 0.16 0.16 0.16 0.16 0.17 0.17 0.17 0.16 0.17 0.18 0.19 0.19 0.20 0.19 0.19 0.19 0.19 0.19 0.19 0.19 0.19 0.18 0.18 0.18 0.17
0.25 0.24 0.23 0.24 0.24 0.24 0.25 0.26 0.27 0.27 0.26 0.25 0.24 0.23 0.22 0.21 0.19 0.16 0.14 0.14 0.14 0.13 0.12 0.12 0.13 0.14 0.14 0.13 0.13 0.14 0.14 0.14 0.14 0.15 0.16 0.16 0.18 0.18 0.18 0.19 0.19 0.19 0.18 0.17 0.17 0.17 0.16 0.16 0.17 0.17 0.17 0.17 0.16 0.15 0.15 0.16 0.17 0.17 0.17 0.17 0.16 0.16 0.16 0.16 0.17 0.17 0.17 0.17 0.17 0.18 0.18 0.19 0.19 0.19 0.19 0.19 0.19 0.19 0.19 0.19 0.19 0.18 0.18 0.18 0.17
0.24 0.24 0.24 0.24 0.25 0.25 0.26 0.27 0.27 0.26 0.24 0.22 0.20 0.19 0.18 0.17 0.15 0.14 0.12 0.12 0.12 0.11 0.12 0.13 0.13 0.12 0.11 0.10 0.11 0.12 0.12 0.13 0.13 0.14 0.15 0.16 0.17 0.17 0.18 0.18 0.18 0.18 0.19 0.18 0.19 0.19 0.19 0.19 0.18 0.18 0.17 0.16 0.15 0.15 0.15 0.16 0.17 0.17 0.17 0.17 0.17 0.17 0.16 0.17 0.17 0.16 0.17 0.17 0.18 0.18 0.18 0.19 0.19 0.19 0.19 0.19 0.19 0.19 0.19 0.19 0.19 0.18 0.18 0.18 0.18
0.24 0.24 0.24 0.25 0.25 0.25 0.26 0.25 0.23 0.21 0.19 0.18 0.17 0.17 0.15 0.14 0.13 0.11 0.11 0.11 0.10 0.11 0.13 0.13 0.11 0.09 0.09 0.10 0.11 0.11 0.12 0.13 0.14 0.16 0.16 0.17 0.17 0.17 0.18 0.17 0.17 0.18 0.18 0.19 0.19 0.19 0.18 0.18 0.17 0.17 0.16 0.15 0.15 0.15 0.15 0.16 0.17 0.18 0.17 0.17 0.17 0.17 0.17 0.16 0.16 0.16 0.17 0.17 0.17 0.18 0.18 0.18 0.19 0.19 0.19 0.19 0.19 0.19 0.19 0.19 0.19 0.19 0.18 0.18 0.18
0.24 0.25 0.25 0.25 0.23 0.24 0.22 0.20 0.19 0.18 0.16 0.16 0.15 0.14 0.13 0.12 0.11 0.10 0.10 0.10 0.11 0.12 0.12 0.10 0.09 0.08 0.09 0.10 0.10 0.11 0.12 0.14 0.15 0.15 0.15 0.15 0.15 0.16 0.17 0.17 0.18 0.18 0.17 0.17 0.17 0.17 0.16 0.16 0.15 0.15 0.15 0.15 0.15 0.15 0.15 0.17 0.18 0.18 0.17 0.17 0.17 0.17 0.17 0.17 0.16 0.17 0.17 0.17 0.17 0.17 0.18 0.18 0.18 0.18 0.19 0.19 0.19 0.19 0.19 0.19 0.19 0.19 0.19 0.18 0.18
0.25 0.23 0.22 0.21 0.21 0.20 0.19 0.18 0.17 0.16 0.15 0.14 0.13 0.11 0.11 0.10 0.09 0.09 0.09 0.11 0.11 0.11 0.09 0.08 0.08 0.09 0.09 0.10 0.11 0.12 0.13 0.14 0.14 0.13 0.13 0.13 0.13 0.13 0.13 0.14 0.15 0.16 0.17 0.17 0.16 0.16 0.15 0.14 0.14 0.13 0.14 0.14 0.14 0.15 0.16 0.17 0.18 0.18 0.18 0.18 0.18 0.17 0.17 0.17 0.17 0.17 0.17 0.17 0.17 0.17 0.18 0.18 0.18 0.18 0.18 0.18 0.19 0.18 0.19 0.19 0.18 0.19 0.19 0.19 0.19
0.21 0.20 0.20 0.19 0.19 0.18 0.17 0.16 0.15 0.14 0.13 0.11 0.10 0.10 0.09 0.09 0.09 0.10 0.10 0.11 0.10 0.09 0.08 0.08 0.09 0.09 0.10 0.11 0.12 0.13 0.13 0.12 0.11 0.11 0.11 0.11 0.11 0.11 0.11 0.12 0.13 0.13 0.14 0.14 0.15 0.15 0.14 0.13 0.13 0.13 0.14 0.14 0.15 0.15 0.16 0.18 0.19 0.18 0.18 0.18 0.18 0.18 0.18 0.18 0.18 0.18 0.18 0.18 0.17 0.17 0.18 0.18 0.18 0.18 0.18 0.18 0.18 0.18 0.19 0.19 0.18 0.19 0.19 0.19 0.18
0.20 0.19 0.19 0.18 0.17 0.16 0.16 0.15 0.13 0.11 0.10 0.10 0.10 0.09 0.09 0.08 0.09 0.10 0.11 0.10 0.08 0.08 0.08 0.09 0.09 0.10 0.11 0.11 0.11 0.11 0.10 0.10 0.10 0.09 0.09 0.09 0.09 0.09 0.09 0.09 0.10 0.11 0.12 0.12 0.13 0.14 0.14 0.13 0.13 0.13 0.14 0.15 0.15 0.16 0.17 0.18 0.19 0.18 0.19 0.18 0.18 0.18 0.18 0.18 0.18 0.18 0.18 0.18 0.18 0.18 0.18 0.18 0.18 0.18 0.18 0.18 0.18 0.18 0.19 0.19 0.19 0.19 0.19 0.19 0.18
0.19 0.18 0.17 0.16 0.16 0.15 0.14 0.12 0.11 0.10 0.09 0.09 0.10 0.09 0.08 0.09 0.09 0.10 0.09 0.08 0.08 0.08 0.08 0.09 0.10 0.10 0.09 0.08 0.08 0.08 0.08 0.08 0.08 0.09 0.09 0.09 0.09 0.09 0.09 0.10 0.10 0.10 0.11 0.12 0.13 0.14 0.14 0.14 0.13 0.13 0.14 0.15 0.15 0.16 0.17 0.19 0.19 0.18 0.19 0.18 0.18 0.17 0.17 0.17 0.18 0.18 0.18 0.18 0.18 0.18 0.18 0.18 0.18 0.19 0.19 0.19 0.19 0.18 0.19 0.19 0.19 0.19 0.19 0.19 0.18
0.17 0.16 0.16 0.15 0.14 0.13 0.11 0.10 0.10 0.09 0.08 0.09 0.09 0.08 0.08 0.09 0.09 0.08 0.07 0.07 0.08 0.08 0.09 0.09 0.09 0.08 0.08 0.08 0.08 0.08 0.08 0.08 0.08 0.08 0.09 0.09 0.09 0.09 0.10 0.10 0.11 0.11 0.11 0.11 0.11 0.12 0.13 0.13 0.13 0.14 0.14 0.15 0.15 0.16 0.18 0.19 0.19 0.18 0.18 0.18 0.18 0.17 0.17 0.17 0.17 0.17 0.18 0.18 0.18 0.18 0.18 0.18 0.18 0.19 0.19 0.19 0.19 0.20 0.19 0.19 0.19 0.19 0.19 0.19 0.19
0.16 0.15 0.15 0.14 0.12 0.11 0.10 0.10 0.08 0.08 0.08 0.08 0.07 0.07 0.08 0.07 0.07 0.07 0.07 0.07 0.08 0.08 0.09 0.08 0.07 0.07 0.08 0.08 0.08 0.08 0.08 0.08 0.08 0.08 0.08 0.09 0.09 0.09 0.09 0.10 0.09 0.10 0.10 0.10 0.11 0.11 0.12 0.13 0.13 0.14 0.15 0.15 0.16 0.17 0.19 0.19 0.19 0.18 0.18 0.18 0.18 0.17 0.17 0.17 0.17 0.17 0.17 0.18 0.18 0.18 0.18 0.18 0.18 0.19 0.19 0.19 0.20 0.20 0.20 0.20 0.19 0.19 0.19 0.19 0.19
0.15 0.14 0.13 0.12 0.12 0.11 0.10 0.08 0.07 0.07 0.08 0.07 0.07 0.07 0.07 0.07 0.07 0.07 0.07 0.07 0.08 0.08 0.08 0.07 0.07 0.07 0.08 0.08 0.08 0.08 0.08 0.08 0.08 0.08 0.08 0.08 0.08 0.08 0.09 0.09 0.09 0.09 0.10 0.10 0.11 0.12 0.13 0.13 0.13 0.14 0.14 0.15 0.16 0.18 0.20 0.19 0.19 0.18 0.18 0.18 0.17 0.17 0.17 0.17 0.17 0.17 0.17 0.17 0.17 0.18 0.18 0.18 0.18 0.18 0.19 0.19 0.19 0.20 0.20 0.21 0.21 0.20 0.20 0.19 0.19
0.13 0.13 0.12 0.11 0.10 0.09 0.08 0.07 0.06 0.07 0.07 0.07 0.07 0.06 0.06 0.06 0.06 0.06 0.07 0.07 0.08 0.08 0.07 0.07 0.07 0.07 0.07 0.07 0.07 0.07 0.08 0.08 0.08 0.08 0.08 0.08 0.08 0.08 0.08 0.08 0.09 0.09 0.10 0.10 0.11 0.12 0.12 0.12 0.12 0.13 0.14 0.15 0.17 0.19 0.20 0.19 0.18 0.18 0.19 0.18 0.18 0.17 0.17 0.17 0.17 0.17 0.17 0.17 0.17 0.17 0.18 0.18 0.18 0.18 0.18 0.19 0.19 0.20 0.20 0.20 0.21 0.21 0.21 0.21 0.20
0.13 0.12 0.11 0.10 0.09 0.08 0.06 0.06 0.06 0.06 0.07 0.07 0.07 0.06 0.06 0.06 0.06 0.06 0.07 0.07 0.08 0.07 0.07 0.07 0.07 0.07 0.07 0.07 0.07 0.07 0.07 0.07 0.08 0.08 0.08 0.08 0.08 0.08 0.08 0.08 0.09 0.09 0.09 0.10 0.11 0.11 0.11 0.11 0.12 0.13 0.14 0.16 0.17 0.19 0.19 0.18 0.18 0.18 0.18 0.18 0.18 0.18 0.17 0.17 0.17 0.17 0.17 0.17 0.17 0.17 0.17 0.18 0.18 0.18 0.18 0.18 0.19 0.19 0.20 0.21 0.21 0.21 0.21 0.21 0.21
0.12 0.12 0.11 0.09 0.07 0.06 0.06 0.06 0.06 0.07 0.07 0.07 0.07 0.06 0.06 0.06 0.06 0.07 0.07 0.07 0.07 0.07 0.07 0.07 0.07 0.07 0.07 0.07 0.07 0.07 0.07 0.07 0.07 0.07 0.08 0.08 0.08 0.08 0.08 0.09 0.09 0.09 0.09 0.09 0.10 0.10 0.11 0.12 0.12 0.13 0.15 0.16 0.17 0.19 0.19 0.18 0.18 0.18 0.18 0.18 0.19 0.18 0.18 0.17 0.17 0.17 0.17 0.17 0.17 0.17 0.17 0.17 0.17 0.18 0.18 0.18 0.18 0.18 0.19 0.19 0.20 0.20 0.21 0.21 0.21
0.11 0.10 0.08 0.06 0.06 0.06 0.06 0.06 0.06 0.07 0.07 0.07 0.06 0.06 0.06 0.06 0.06 0.06 0.07 0.07 0.07 0.07 0.06 0.07 0.07 0.07 0.07 0.07 0.07 0.07 0.07 0.07 0.07 0.07 0.07 0.07 0.08 0.08 0.08 0.08 0.09 0.09 0.09 0.09 0.10 0.10 0.11 0.12 0.13 0.14 0.15 0.16 0.17 0.18 0.18 0.18 0.17 0.18 0.18 0.18 0.18 0.18 0.18 0.17 0.17 0.17 0.17 0.17 0.17 0.17 0.17 0.16 0.17 0.17 0.18 0.18 0.18 0.18 0.18 0.18 0.18 0.19 0.20 0.21 0.21
0.10 0.07 0.06 0.06 0.06 0.06 0.06 0.06 0.07 0.07 0.07 0.07 0.06 0.06 0.06 0.06 0.06 0.07 0.07 0.07 0.07 0.06 0.06 0.06 0.06 0.07 0.07 0.07 0.07 0.07 0.07 0.07 0.07 0.07 0.07 0.07 0.07 0.08 0.08 0.08 0.08 0.09 0.09 0.09 0.10 0.10 0.11 0.12 0.13 0.13 0.14 0.16 0.17 0.18 0.18 0.18 0.17 0.17 0.18 0.18 0.18 0.18 0.17 0.17 0.17 0.17 0.17 0.17 0.17 0.17 0.17 0.17 0.17 0.17 0.17 0.18 0.18 0.18 0.18 0.18 0.18 0.18 0.18 0.20 0.21
0.07 0.06 0.06 0.06 0.06 0.06 0.07 0.07 0.07 0.07 0.07 0.07 0.06 0.06 0.06 0.06 0.06 0.06 0.06 0.06 0.06 0.06 0.06 0.06 0.06 0.06 0.06 0.07 0.07 0.07 0.06 0.06 0.06 0.06 0.07 0.07 0.07 0.07 0.08 0.08 0.08 0.08 0.09 0.09 0.09 0.10 0.11 0.12 0.13 0.14 0.14 0.16 0.17 0.17 0.18 0.17 0.17 0.18 0.17 0.18 0.18 0.17 0.17 0.17 0.17 0.17 0.17 0.17 0.17 0.17 0.17 0.17 0.17 0.17 0.17 0.18 0.18 0.18 0.18 0.18 0.17 0.17 0.18 0.19 0.20
0.06 0.06 0.06 0.06 0.06 0.07 0.07 0.07 0.07 0.06 0.07 0.07 0.06 0.06 0.06 0.06 0.06 0.06 0.06 0.06 0.06 0.06 0.06 0.06 0.06 0.06 0.07 0.07 0.07 0.06 0.06 0.06 0.06 0.06 0.06 0.07 0.07 0.07 0.08 0.08 0.08 0.08 0.08 0.09 0.10 0.10 0.12 0.12 0.13 0.13 0.15 0.16 0.16 0.17 0.17 0.17 0.17 0.17 0.17 0.17 0.17 0.17 0.17 0.17 0.17 0.17 0.17 0.17 0.17 0.17 0.17 0.17 0.17 0.17 0.17 0.18 0.18 0.18 0.18 0.18 0.18 0.18 0.18 0.18 0.19
0.06 0.06 0.06 0.06 0.06 0.07 0.07 0.06 0.06 0.06 0.06 0.07 0.06 0.06 0.06 0.06 0.06 0.06 0.06 0.06 0.06 0.06 0.06 0.06 0.06 0.06 0.06 0.06 0.06 0.06 0.06 0.06 0.06 0.06 0.07 0.07 0.07 0.07 0.08 0.08 0.09 0.09 0.09 0.09 0.10 0.10 0.11 0.12 0.13 0.14 0.15 0.16 0.16 0.16 0.17 0.17 0.17 0.17 0.17 0.17 0.17 0.17 0.16 0.16 0.16 0.16 0.17 0.17 0.17 0.17 0.17 0.18 0.17 0.17 0.18 0.18 0.19 0.19 0.19 0.19 0.18 0.18 0.18 0.18 0.19
0.07 0.07 0.07 0.07 0.07 0.06 0.06 0.06 0.06 0.06 0.06 0.06 0.06 0.06 0.06 0.06 0.06 0.06 0.06 0.06 0.06 0.06 0.06 0.06 0.06 0.06 0.06 0.06 0.06 0.06 0.06 0.06 0.06 0.06 0.07 0.07 0.07 0.08 0.08 0.08 0.09 0.09 0.09 0.10 0.10 0.10 0.10 0.11 0.13 0.14 0.15 0.15 0.16 0.16 0.16 0.16 0.16 0.17 0.17 0.17 0.17 0.16 0.16 0.16 0.16 0.16 0.16 0.16 0.17 0.17 0.17 0.17 0.18 0.18 0.18 0.18 0.19 0.19 0.19 0.19 0.19 0.18 0.18 0.18 0.19
0.06 0.06 0.07 0.06 0.06 0.06 0.06 0.06 0.06 0.06 0.06 0.06 0.06 0.06 0.05 0.06 0.06 0.06 0.05 0.06 0.06 0.06 0.06 0.06 0.06 0.06 0.06 0.06 0.06 0.06 0.06 0.06 0.06 0.07 0.07 0.07 0.07 0.07 0.08 0.08 0.08 0.09 0.09 0.10 0.09 0.10 0.10 0.11 0.12 0.13 0.15 0.15 0.15 0.15 0.15 0.16 0.16 0.16 0.17 0.17 0.17 0.16 0.16 0.16 0.16 0.16 0.16 0.15 0.16 0.17 0.17 0.18 0.18 0.18 0.19 0.19 0.19 0.19 0.20 0.20 0.20 0.19 0.19 0.19 0.20
0.07 0.07 0.06 0.06 0.06 0.06 0.06 0.06 0.06 0.06 0.06 0.06 0.06 0.05 0.05 0.05 0.05 0.05 0.06 0.06 0.06 0.06 0.06 0.06 0.06 0.06 0.06 0.06 0.06 0.06 0.06 0.06 0.06 0.07 0.07 0.07 0.07 0.07 0.08 0.08 0.09 0.09 0.09 0.09 0.09 0.10 0.10 0.11 0.12 0.13 0.14 0.14 0.15 0.15 0.15 0.15 0.15 0.16 0.16 0.16 0.16 0.16 0.17 0.16 0.16 0.15 0.16 0.16 0.16 0.16 0.16 0.17 0.18 0.18 0.18 0.19 0.19 0.20 0.20 0.21 0.21 0.21 0.20 0.20 0.20
0.06 0.06 0.06 0.06 0.06 0.06 0.06 0.06 0.06 0.06 0.06 0.06 0.06 0.05 0.05 0.05 0.05 0.05 0.06 0.06 0.06 0.06 0.06 0.06 0.06 0.06 0.06 0.06 0.06 0.06 0.06 0.06 0.06 0.07 0.07 0.07 0.07 0.07 0.08 0.08 0.09 0.09 0.09 0.09 0.09 0.09 0.10 0.10 0.11 0.12 0.13 0.14 0.14 0.14 0.15 0.15 0.15 0.15 0.16 0.16 0.16 0.16 0.17 0.17 0.16 0.15 0.15 0.15 0.16 0.16 0.17 0.17 0.17 0.18 0.18 0.19 0.19 0.20 0.20 0.21 0.22 0.21 0.21 0.21 0.21
0.06 0.06 0.06 0.06 0.06 0.06 0.06 0.06 0.06 0.06 0.06 0.06 0.06 0.05 0.05 0.05 0.05 0.06 0.06 0.06 0.06 0.06 0.06 0.06 0.05 0.06 0.06 0.06 0.06 0.06 0.06 0.06 0.06 0.07 0.07 0.07 0.07 0.07 0.08 0.08 0.08 0.08 0.08 0.09 0.09 0.09 0.09 0.10 0.11 0.12 0.13 0.13 0.14 0.14 0.14 0.15 0.15 0.15 0.16 0.16 0.16 0.16 0.17 0.17 0.16 0.16 0.16 0.16 0.16 0.16 0.17 0.17 0.18 0.18 0.19 0.19 0.19 0.19 0.20 0.21 0.21 0.22 0.21 0.21 0.21
0.06 0.06 0.06 0.06 0.06 0.06 0.06 0.05 0.06 0.06 0.06 0.06 0.06 0.05 0.05 0.05 0.05 0.06 0.05 0.05 0.05 0.05 0.05 0.05 0.05 0.05 0.05 0.06 0.06 0.06 0.06 0.06 0.07 0.07 0.06 0.07 0.07 0.07 0.07 0.08 0.08 0.08 0.09 0.09 0.09 0.09 0.09 0.10 0.10 0.11 0.12 0.13 0.13 0.14 0.14 0.14 0.15 0.15 0.15 0.16 0.16 0.16 0.16 0.17 0.16 0.16 0.16 0.16 0.16 0.16 0.17 0.17 0.18 0.18 0.19 0.19 0.19 0.19 0.20 0.21 0.21 0.21 0.21 0.22 0.21
0.06 0.06 0.06 0.06 0.06 0.06 0.06 0.05 0.05 0.06 0.06 0.06 0.06 0.06 0.05 0.05 0.05 0.05 0.05 0.05 0.05 0.05 0.05 0.05 0.05 0.05 0.05 0.06 0.06 0.06 0.06 0.06 0.07 0.07 0.07 0.07 0.07 0.07 0.07 0.07 0.08 0.08 0.09 0.09 0.09 0.09 0.09 0.10 0.10 0.11 0.12 0.12 0.13 0.13 0.14 0.14 0.14 0.15 0.15 0.15 0.16 0.16 0.16 0.16 0.17 0.16 0.16 0.16 0.17 0.17 0.17 0.18 0.18 0.19 0.19 0.19 0.19 0.20 0.21 0.21 0.21 0.21 0.22 0.21 0.21
0.06 0.06 0.06 0.06 0.06 0.05 0.05 0.05 0.05 0.05 0.05 0.05 0.05 0.06 0.05 0.05 0.05 0.05 0.05 0.05 0.05 0.05 0.05 0.05 0.05 0.05 0.05 0.06 0.06 0.06 0.06 0.06 0.06 0.07 0.07 0.07 0.07 0.07 0.07 0.07 0.08 0.08 0.09 0.09 0.09 0.09 0.09 0.09 0.10 0.11 0.12 0.12 0.12 0.13 0.13 0.14 0.14 0.14 0.15 0.15 0.15 0.16 0.16 0.16 0.16 0.17 0.17 0.17 0.17 0.17 0.17 0.18 0.18 0.19 0.20 0.20 0.20 0.21 0.20 0.20 0.21 0.21 0.21 0.21 0.20
0.06 0.06 0.06 0.06 0.06 0.05 0.05 0.05 0.05 0.05 0.05 0.05 0.05 0.05 0.05 0.05 0.05 0.05 0.05 0.05 0.05 0.05 0.05 0.05 0.05 0.05 0.05 0.05 0.06 0.06 0.06 0.06 0.06 0.07 0.07 0.07 0.07 0.07 0.07 0.08 0.08 0.08 0.09 0.09 0.09 0.09 0.09 0.10 0.10 0.11 0.12 0.12 0.12 0.12 0.13 0.13 0.14 0.14 0.15 0.15 0.15 0.15 0.15 0.16 0.16 0.17 0.17 0.17 0.17 0.18 0.18 0.18 0.19 0.19 0.19 0.19 0.19 0.19 0.19 0.19 0.19 0.19 0.20 0.20 0.20
0.06 0.06 0.06 0.06 0.06 0.05 0.05 0.05 0.05 0.05 0.05 0.05 0.05 0.05 0.05 0.05 0.05 0.05 0.05 0.05 0.05 0.05 0.05 0.05 0.05 0.05 0.05 0.06 0.06 0.06 0.06 0.06 0.06 0.07 0.07 0.07 0.07 0.07 0.07 0.08 0.09 0.09 0.09 0.09 0.10 0.10 0.10 0.11 0.11 0.12 0.11 0.11 0.12 0.12 0.13 0.14 0.15 0.16 0.15 0.15 0.15 0.15 0.15 0.15 0.16 0.16 0.16 0.17 0.17 0.17 0.17 0.17 0.17 0.17 0.17 0.17 0.17 0.17 0.17 0.18 0.18 0.18 0.18 0.18 0.18
0.06 0.06 0.06 0.06 0.06 0.05 0.05 0.05 0.05 0.05 0.05 0.05 0.05 0.05 0.05 0.05 0.05 0.05 0.05 0.05 0.05 0.05 0.05 0.05 0.05 0.05 0.05 0.05 0.06 0.06 0.06 0.06 0.06 0.06 0.07 0.07 0.08 0.08 0.08 0.08 0.09 0.10 0.10 0.11 0.12 0.11 0.11 0.12 0.12 0.12 0.13 0.12 0.12 0.13 0.14 0.15 0.16 0.15 0.16 0.16 0.16 0.16 0.15 0.15 0.15 0.17 0.17 0.15 0.15 0.15 0.15 0.16 0.16 0.16 0.15 0.15 0.16 0.16 0.16 0.16 0.16 0.17 0.17 0.16 0.16
0.06 0.06 0.06 0.06 0.05 0.05 0.05 0.05 0.05 0.05 0.05 0.05 0.05 0.05 0.05 0.05 0.05 0.05 0.05 0.05 0.05 0.05 0.05 0.05 0.05 0.05 0.05 0.06 0.06 0.06 0.06 0.06 0.06 0.06 0.07 0.07 0.07 0.07 0.08 0.09 0.09 0.10 0.10 0.11 0.12 0.12 0.13 0.13 0.13 0.12 0.13 0.14 0.14 0.14 0.15 0.15 0.16 0.16 0.15 0.16 0.16 0.16 0.15 0.16 0.17 0.16 0.15 0.15 0.14 0.14 0.14 0.15 0.15 0.15 0.14 0.15 0.15 0.15 0.15 0.15 0.15 0.15 0.15 0.15 0.15
Wind_Speed
20 20 20 20 21 21 22 22 22 23 23 24 24 25 26 28 29 31 32 33 35 36 38 38 39 40 41 41 42 42 43 43 44 44 44 44 45 45 45 45 46 46 47 47 47 48 48 49 49 49 50 50 50 51 51 51 51 51 51 51 51 51 51 51 51 51 51 51 51 51 51 50 50 50 50 49 48 47 47 46 46 45 45 45 45
20 20 20 20 21 22 22 23 23 24 25 25 26 27 28 29 31 32 34 35 37 38 39 40 40 41 42 43 44 44 44 44 44 45 45 45 45 45 46 46 46 47 47 48 48 49 49 50 50 50 51 51 51 52 52 52 52 52 52 52 52 52 52 51 51 51 52 51 51 51 50 50 50 50 49 49 48 48 47 47 46 45 45 45 45
20 20 20 21 22 22 23 24 25 25 26 27 27 29 30 31 32 33 35 37 38 39 40 41 42 43 44 44 45 45 45 45 45 46 46 46 46 47 47 47 47 48 48 49 49 50 50 50 51 51 51 51 52 52 53 53 53 53 53 53 53 53 53 53 52 52 52 52 51 51 50 49 49 48 48 48 48 47 47 46 45 45 45 45 45
20 21 21 22 22 23 24 25 26 26 27 28 29 30 31 32 34 35 37 39 40 41 42 43 44 44 45 46 46 46 46 46 46 46 46 47 47 47 48 48 48 49 49 49 50 50 51 51 51 51 51 52 52 53 53 53 54 54 54 54 54 55 55 54 54 54 54 53 52 50 49 48 48 48 47 48 47 47 46 46 46 46 46 45 45
20 21 22 23 24 24 25 26 26 27 28 29 30 31 32 34 36 38 39 41 42 43 44 45 45 46 46 46 46 47 47 47 47 47 47 47 47 48 48 49 49 49 49 49 50 50 51 51 52 52 52 53 53 53 53 54 54 55 55 55 56 56 56 56 55 55 55 55 54 52 50 49 49 48 48 48 47 47 47 46 46 46 46 45 45
21 21 22 23 25 26 26 27 27 28 29 30 32 33 35 37 39 40 41 42 43 45 46 47 47 46 47 47 47 47 47 47 47 48 48 48 48 48 48 49 49 49 49 49 50 50 51 51 52 52 53 53 54 54 54 54 55 55 56 56 57 57 57 57 57 56 57 57 57 56 54 53 51 50 49 48 48 47 47 47 47 46 46 45 45
21 22 23 25 26 27 27 28 28 29 30 32 34 36 38 40 41 42 43 44 45 47 47 47 47 47 47 47 48 48 48 49 49 49 48 48 48 48 49 49 49 49 50 50 50 51 51 52 52 53 53 53 54 55 55 55 55 56 56 57 57 58 58 58 58 58 58 58 58 59 58 57 55 53 51 50 49 49 48 47 47 46 46 46 45
21 23 24 26 27 28 28 28 29 31 33 35 37 39 41 42 43 44 45 47 48 48 48 48 47 47 47 47 48 48 49 50 50 49 49 49 49 49 49 49 50 50 50 51 51 52 52 52 53 53 53 53 54 54 55 55 56 56 57 57 58 58 59 59 59 58 58 59 58 59 59 58 57 56 54 53 51 50 49 48 48 47 47 46 45
22 24 25 27 28 29 29 30 31 33 35 37 39 41 43 43 45 46 47 49 49 49 49 48 48 48 48 48 48 49 49 50 50 50 50 50 50 50 50 50 50 51 51 51 52 52 52 53 53 53 53 54 54 54 55 55 56 56 57 57 58 59 59 60 60 59 59 59 59 59 59 58 57 56 55 54 53 51 50 49 48 47 47 46 45
24 25 27 28 30 30 30 31 34 36 37 40 41 43 44 45 46 48 49 50 50 50 49 49 49 49 49 49 49 49 50 50 50 50 50 50 51 51 51 51 51 51 51 52 52 52 52 53 53 53 53 54 54 55 55 56 56 57 57 58 58 59 59 60 60 60 59 59 59 59 58 58 57 56 55 54 52 52 51 49 48 47 47 46 45
25 27 29 30 31 31 32 34 36 38 40 41 42 44 45 46 48 50 51 51 51 50 50 50 50 50 50 50 50 50 51 51 51 51 51 51 52 52 52 52 51 51 51 52 52 52 52 53 53 54 54 54 54 55 55 56 56 57 57 57 58 59 59 60 60 60 60 60 60 60 59 58 57 55 54 53 52 51 51 50 48 47 47 46 45
27 29 30 31 32 32 34 36 39 41 42 43 44 45 47 49 50 52 52 52 51 51 51 51 51 51 51 51 51 52 52 52 52 52 52 52 53 53 52 52 52 51 51 52 52 52 52 52 53 54 55 55 55 56 56 56 57 57 57 57 58 58 59 60 60 61 61 60 61 60 60 59 58 57 55 54 53 52 51 50 48 47 47 47 45
29 30 31 32 33 35 37 39 41 42 43 44 45 47 49 50 51 52 52 52 51 51 52 52 52 52 52 52 53 53 53 52 52 52 52 52 53 53 53 53 52 52 52 52 52 52 52 52 53 54 55 55 56 57 57 57 57 57 58 58 58 58 59 59 60 61 61 60 60 60 59 59 59 57 55 54 53 52 51 50 48 48 47 46 46
31 31 32 33 35 38 40 41 42 43 45 46 47 48 49 50 51 52 52 52 53 53 53 53 53 52 53 53 54 54 53 53 53 53 53 53 53 54 54 53 53 53 53 52 52 52 53 53 53 53 54 55 56 56 57 57 57 58 58 58 59 58 58 59 59 60 60 59 59 58 58 58 57 56 55 54 53 52 51 49 48 47 47 46 45
32 33 34 35 38 40 42 42 43 45 46 47 48 49 49 50 52 53 53 54 55 55 54 54 54 54 54 54 54 54 54 53 53 54 54 54 54 54 55 54 53 54 53 53 53 53 53 53 53 53 54 54 55 56 56 57 57 58 58 58 58 57 57 57 58 58 58 58 58 57 57 56 55 55 54 54 53 52 51 49 48 47 46 45 45
33 34 36 38 41 42 42 43 45 47 48 48 49 49 50 52 53 54 55 56 56 56 55 55 55 54 54 54 54 54 53 54 54 54 54 55 55 55 54 54 54 54 54 54 54 53 53 53 53 53 53 54 54 55 55 56 56 57 57 57 57 56 56 56 56 56 57 57 56 56 55 55 54 53 53 52 52 51 50 49 48 47 45 44 43
34 36 38 40 41 42 43 45 47 48 48 49 49 50 52 53 54 55 56 56 56 56 56 55 54 54 54 54 54 53 54 54 54 55 55 55 54 54 54 55 54 54 55 55 55 54 54 54 54 54 54 54 53 53 54 54 55 55 56 55 55 55 55 56 55 55 55 55 55 55 54 53 52 52 52 51 50 50 49 48 48 46 45 44 42
37 39 41 41 42 43 45 47 48 48 48 49 50 52 53 55 56 57 57 57 57 56 55 54 54 54 54 54 54 54 54 54 54 54 54 54 55 55 55 56 55 55 56 56 56 56 55 54 54 54 54 53 53 52 52 53 53 54 55 54 54 54 54 54 54 53 53 52 52 52 51 51 50 50 50 49 49 49 48 47 47 45 45 43 42
40 41 41 42 44 46 47 48 48 48 49 51 53 54 55 56 57 57 58 58 57 55 54 54 55 55 54 54 54 53 53 54 54 54 54 55 56 56 56 56 56 56 56 57 57 56 55 54 54 54 53 53 52 52 51 51 52 53 53 53 53 53 53 52 52 51 50 49 50 49 49 48 48 48 48 48 48 47 47 46 45 44 44 43 42
42 42 42 44 45 47 48 48 48 49 51 53 55 56 56 57 58 59 59 58 56 55 55 56 55 54 53 53 53 53 54 54 54 54 55 55 55 55 55 55 55 56 56 56 55 54 53 53 53 53 52 52 52 52 51 51 52 52 52 52 52 51 51 50 49 49 48 47 47 46 46 45 45 45 46 46 46 46 45 45 44 44 43 42 41
42 42 44 45 46 47 48 48 49 51 53 55 56 56 57 58 59 60 59 57 56 56 56 55 54 53 54 54 55 55 55 54 54 54 54 54 54 53 53 53 53 53 53 52 52 51 52 52 52 51 51 51 51 52 52 52 52 51 51 51 50 49 49 48 47 46 45 44 44 43 43 43 43 43 43 44 44 44 44 43 43 43 42 42 41
43 44 45 46 47 48 48 48 51 53 54 56 57 57 58 59 60 59 58 57 57 57 55 54 54 54 55 55 54 54 54 53 53 53 52 52 52 52 52 52 52 51 51 50 51 51 51 51 51 50 50 50 50 51 52 52 52 51 50 49 48 47 47 46 44 43 41 41 40 40 41 40 40 41 41 42 42 42 42 42 42 41 41 41 40
43 44 45 47 48 48 48 50 52 54 56 57 57 58 59 59 59 58 57 57 57 56 54 54 55 55 55 54 53 53 52 52 51 51 51 51 51 52 52 52 52 52 52 52 52 52 51 51 50 49 49 49 50 51 51 51 51 49 48 46 46 45 44 43 41 39 38 38 38 38 38 39 39 39 39 40 40 41 41 41 40 40 40 40 39
44 44 46 47 47 48 49 51 53 55 56 57 58 58 58 58 58 58 58 57 55 54 54 55 55 54 53 52 52 52 51 50 50 50 51 51 51 52 52 52 52 52 52 52 51 51 50 50 49 48 48 49 49 49 50 50 49 47 46 44 44 43 41 39 37 36 36 36 36 35 36 37 38 38 38 38 38 39 39 39 39 39 39 38 38
43 44 46 46 46 48 50 52 54 56 57 57 57 57 57 57 58 57 56 55 53 54 55 55 53 52 51 50 51 50 49 49 49 50 51 52 52 52 52 52 52 51 50 50 49 49 48 48 48 47 47 48 48 48 48 48 47 45 44 43 42 40 38 36 34 34 34 34 34 34 34 35 36 37 37 37 37 37 38 38 38 38 38 37 37
43 45 45 46 47 49 51 53 55 56 56 56 56 56 57 57 57 55 54 53 54 55 54 53 51 50 49 49 49 49 49 50 51 52 53 53 53 53 53 53 52 52 50 49 49 48 47 47 47 47 47 47 47 47 47 47 45 43 42 41 39 37 35 33 32 32 32 32 32 33 33 34 34 35 35 35 36 36 36 37 37 37 36 36 36
43 44 45 46 48 50 52 54 55 55 55 55 55 56 57 57 55 53 52 54 55 54 52 51 49 48 49 49 50 50 51 52 52 53 53 53 53 53 53 52 52 52 51 51 50 48 48 47 47 47 47 47 47 47 46 44 42 41 40 39 37 34 32 31 31 31 31 31 31 31 32 33 33 34 34 34 35 35 35 36 36 36 35 35 35
43 44 46 48 49 51 53 54 54 55 55 54 54 55 55 54 53 52 53 54 54 52 51 49 49 49 50 51 52 52 52 52 52 53 52 52 51 51 51 50 50 49 50 50 49 48 48 48 47 47 46 46 46 45 44 42 40 38 37 36 34 32 31 30 30 31 30 30 30 31 31 32 32 33 33 33 34 34 34 35 35 35 35 35 34
44 45 47 48 50 52 53 53 54 55 54 53 54 55 54 52 52 53 54 54 52 51 49 49 50 52 52 52 52 52 52 52 52 52 51 51 51 50 49 48 48 48 49 49 49 49 49 48 48 47 46 45 44 43 41 39 37 36 35 34 31 30 29 29 29 30 29 29 29 30 30 31 32 32 32 32 33 33 33 34 34 34 34 34 34
45 46 47 48 50 51 52 52 53 54 53 53 54 54 53 53 54 54 54 53 51 50 49 51 53 54 53 53 52 52 52 52 52 51 51 51 50 50 49 49 49 49 49 49 49 48 48 47 47 46 45 44 43 41 39 37 36 35 33 31 29 28 28 28 29 28 28 28 28 29 30 30 31 32 32 32 32 33 33 33 33 33 33 33 32
45 46 47 48 50 51 51 52 53 53 53 54 54 54 54 54 55 55 54 53 50 50 52 54 54 54 53 53 53 52 52 52 52 51 51 51 50 50 50 49 49 49 48 47 47 47 47 46 46 45 44 43 41 39 37 35 34 33 31 28 27 27 27 27 28 27 27 27 28 28 28 29 30 30 31 31 32 32 32 33 33 33 33 33 32
45 46 47 48 50 50 51 52 53 54 54 54 55 55 55 55 55 55 54 52 51 52 54 55 54 54 54 53 53 53 52 52 52 51 51 51 51 50 50 50 49 48 48 47 47 47 46 46 45 44 43 41 39 37 35 33 32 31 29 26 25 25 26 26 26 26 26 26 27 27 27 28 28 29 30 31 31 31 31 32 32 32 32 33 32
44 46 47 49 49 50 52 53 53 54 54 55 55 56 56 56 56 56 54 52 52 54 55 55 55 54 54 54 53 53 52 52 52 52 52 51 51 50 50 49 49 48 47 47 47 46 46 45 44 43 41 39 36 34 33 31 30 29 27 25 24 25 26 26 26 26 25 25 25 26 26 26 27 28 29 29 30 31 30 30 31 31 31 32 32
45 46 47 49 50 51 52 53 54 54 54 55 56 56 56 57 57 56 54 53 54 55 56 56 55 55 54 54 53 53 53 52 52 52 51 51 51 50 50 49 48 47 47 46 46 46 45 44 42 40 39 36 33 32 31 30 28 27 26 25 24 24 25 25 25 25 25 25 24 24 24 25 26 27 27 28 29 30 31 30 30 30 30 30 30
46 47 48 50 51 52 53 53 54 54 55 55 56 57 57 57 57 56 54 54 55 56 56 56 56 55 54 54 54 53 53 52 52 52 51 51 50 50 49 48 47 47 46 46 45 45 44 42 40 37 35 33 31 30 29 28 27 26 25 24 23 24 25 25 24 24 24 24 24 23 24 25 25 26 27 27 28 28 30 31 31 30 29 29 29
46 47 49 51 52 53 53 54 55 55 56 56 56 57 58 57 57 56 55 55 56 57 57 57 56 55 55 54 54 53 53 52 52 51 51 50 50 49 49 48 47 46 45 45 44 43 41 39 37 34 32 30 28 28 28 26 25 25 24 23 23 23 24 24 23 23 23 23 23 24 24 25 25 25 26 27 27 27 28 29 30 30 30 29 29
46 48 50 51 52 53 53 55 55 56 56 56 57 58 58 58 57 56 56 57 57 57 57 57 56 55 55 54 53 53 53 52 51 51 50 50 49 48 48 47 46 45 44 43 42 40 38 36 34 32 29 27 26 26 26 25 24 24 24 23 23 23 23 23 23 23 23 23 23 24 25 25 25 25 26 26 27 27 27 28 28 29 29 29 28
47 49 50 51 52 53 54 55 56 56 56 57 58 58 58 58 57 57 57 57 58 58 57 57 56 55 55 54 53 52 52 51 50 49 49 48 48 47 46 45 44 43 42 41 39 37 35 33 31 29 27 26 25 24 24 24 24 24 23 23 23 22 22 22 23 23 23 23 23 24 25 25 25 25 25 26 27 27 27 27 27 27 28 28 28
47 50 51 52 53 53 54 55 56 57 57 57 58 58 58 58 58 57 58 58 58 58 57 56 56 55 54 53 52 51 50 50 49 48 48 47 46 45 44 43 42 41 40 38 36 35 33 30 28 26 25 24 23 23 23 23 23 23 23 22 22 22 22 21 22 23 22 23 23 24 25 25 25 25 25 25 26 27 27 27 27 26 27 28 27
48 50 51 52 53 53 54 55 56 57 58 58 58 58 58 58 58 58 58 58 58 58 56 55 54 54 53 52 51 50 49 49 48 47 47 46 45 45 44 42 41 39 37 35 34 32 30 28 26 25 23 22 22 21 21 21 22 23 23 22 21 22 22 22 22 22 22 23 23 24 24 25 25 26 26 26 26 27 27 26 26 26 26 26 26
49 50 51 52 53 53 54 55 56 58 58 58 58 58 58 58 58 58 58 59 58 57 55 54 53 53 52 51 50 49 48 48 47 47 46 45 45 44 43 41 40 37 35 33 32 30 28 26 24 23 22 21 21 20 20 20 21 22 22 22 22 21 22 22 22 22 22 23 24 24 24 24 25 25 26 26 26 27 27 26 26 26 26 26 25
49 51 52 53 53 54 55 56 57 58 58 58 59 58 58 58 58 58 59 59 57 56 54 53 53 52 51 50 49 48 47 47 46 46 45 45 43 43 41 40 38 35 33 32 30 28 26 24 23 21 21 20 20 19 19 20 20 21 22 22 22 22 22 22 22 22 23 23 24 24 23 24 25 25 26 26 26 27 27 26 27 27 26 26 26
50 51 53 54 54 54 55 56 57 58 58 59 59 59 59 58 58 59 59 58 57 55 54 53 52 52 51 50 48 48 46 46 45 45 45 44 42 41 40 38 36 33 31 30 27 25 24 23 21 20 19 19 19 18 19 19 20 21 22 22 22 22 22 22 22 22 23 23 23 23 23 23 24 25 25 26 26 27 27 26 27 27 27 26 26
50 52 53 54 54 55 56 57 58 58 59 59 59 59 59 59 59 59 59 58 56 54 54 53 52 51 50 49 48 46 46 45 45 44 43 42 41 40 38 36 33 31 29 27 25 23 22 21 20 19 18 18 17 17 18 18 19 20 21 22 22 22 22 22 22 22 22 22 22 22 22 22 23 24 25 25 26 26 27 27 27 27 27 27 26
51 52 53 54 54 55 56 57 58 59 59 58 59 59 59 60 60 60 59 57 56 55 54 53 52 51 49 48 46 45 44 44 44 43 42 41 40 38 37 34 31 29 27 25 23 22 20 19 18 17 17 16 16 16 16 17 18 19 20 20 21 22 22 22 22 21 21 20 21 21 22 22 22 23 24 24 25 25 27 27 27 26 26 26 26
52 53 54 54 55 56 57 58 59 59 59 59 59 59 59 60 60 60 58 56 55 55 53 52 51 49 48 46 45 44 43 42 42 41 40 39 38 36 35 32 29 27 25 23 21 20 18 17 16 16 16 16 15 15 15 15 15 16 17 18 19 20 21 21 21 21 20 20 20 20 21 22 22 22 23 23 24 24 25 26 26 26 25 25 26
52 53 54 55 55 56 57 59 59 59 59 59 59 59 59 59 60 59 57 56 55 54 52 51 49 47 46 44 43 42 41 41 40 39 38 37 36 35 33 30 27 24 22 21 20 18 16 15 14 14 14 14 13 13 13 13 13 14 14 15 17 18 19 19 20 21 20 20 20 20 21 21 21 21 21 21 21 22 22 23 23 23 24 24 25
52 53 54 55 56 57 58 59 59 59 59 59 59 59 59 59 59 58 56 55 53 52 51 49 47 46 44 43 42 41 40 39 39 38 38 36 34 33 31 28 25 22 21 20 18 17 15 14 14 13 13 12 11 11 11 11 11 12 12 13 14 16 17 17 18 19 20 20 19 19 19 20 19 19 19 19 20 20 20 20 21 22 22 23 24
52 53 54 55 56 57 59 59 59 59 60 59 59 59 59 59 58 56 55 54 52 51 49 48 46 44 43 41 40 40 39 38 38 37 36 35 33 31 29 26 23 21 19 18 17 15 13 13 13 12 12 11 10 10 10 11 12 12 12 12 12 14 16 16 17 18 19 19 19 18 18 18 18 18 19 19 19 19 20 20 20 21 22 22 23
52 53 54 55 56 58 59 59 59 59 59 59 59 58 58 58 56 55 54 53 51 50 48 47 45 43 42 40 39 38 38 37 37 36 35 34 32 30 28 25 22 20 18 17 15 13 11 11 11 11 10 11 11 10 11 11 11 10 11 11 11 12 14 15 16 16 16 17 17 18 18 18 18 18 18 19 19 20 20 20 21 21 22 23 23
53 53 55 56 57 58 58 59 59 59 59 59 58 58 57 56 55 54 53 52 50 49 47 46 44 42 41 40 38 37 37 36 35 34 34 32 30 28 26 24 21 19 17 15 13 11 9 8 8 9 9 9 9 9 10 10 9 8 10 11 11 12 13 14 15 14 14 15 16 16 17 17 17 17 18 18 19 20 20 21 21 22 22 23 23
Wind_Direction
298 300 300 298 298 297 296 296 296 297 297 299 301 302 302 302 303 302 302 302 301 301 301 301 300 300 299 299 298 298 298 297 296 296 295 294 294 293 292 291 291 290 289 289 288 288 288 288 287 287 286 285 284 283 283 282 281 281 281 280 279 279 278 278 278 277 277 277 276 276 275 274 274 273 272 272 271 271 270 270 269 269 268 269 270
300 303 301 299 298 297 296 295 295 296 297 298 301 303 303 304 304 303 303 303 303 302 302 302 301 301 300 300 299 299 298 297 297 296 295 294 294 293 292 291 291 290 290 289 288 288 288 288 288 287 286 285 284 284 283 282 281 280 280 279 279 278 278 278 277 276 276 276 276 276 275 275 273 272 271 271 270 270 269 269 268 268 268 269 269
302 303 303 301 300 298 297 297 296 295 297 298 300 303 304 304 304 304 304 304 304 303 302 302 302 302 301 301 300 299 298 297 296 296 295 294 293 293 292 291 291 290 290 289 288 288 288 288 287 287 286 285 285 284 283 282 281 280 279 279 279 278 277 277 276 275 275 276 276 275 275 275 274 272 271 270 270 269 268 268 267 267 268 268 268
302 302 303 303 302 301 300 300 298 297 298 299 301 304 304 303 303 304 306 306 305 303 303 303 303 302 302 301 300 298 298 297 297 296 296 295 294 293 292 292 291 290 290 289 288 288 287 287 287 286 286 285 285 284 283 282 281 280 280 279 278 278 277 277 276 275 274 275 274 274 274 274 272 271 271 270 269 268 267 267 267 266 267 267 267
302 302 303 304 304 303 302 302 301 300 300 301 303 304 303 303 304 305 306 306 305 304 303 303 303 303 302 301 300 299 298 298 297 297 297 296 296 295 294 292 291 291 290 289 289 288 288 287 287 287 286 286 285 284 283 282 282 281 280 279 278 277 277 276 275 275 273 272 272 272 272 272 271 271 271 270 268 267 266 266 266 266 266 266 266
303 302 303 305 306 305 304 304 303 302 302 303 304 304 304 305 306 306 306 306 305 304 303 303 302 302 301 301 300 299 298 297 297 297 297 297 297 296 295 294 293 292 291 290 289 289 289 288 288 287 287 286 285 284 283 283 282 281 280 279 278 277 276 276 275 274 273 272 271 270 270 269 270 270 270 269 268 266 266 265 265 265 265 265 265
304 304 304 306 307 307 306 305 304 304 304 304 304 305 306 307 306 306 305 306 305 304 304 303 302 300 300 300 299 299 298 297 297 296 296 296 296 296 296 295 294 293 292 291 291 290 289 289 288 287 287 286 285 284 283 283 282 281 281 280 279 278 277 276 275 274 273 272 271 269 269 268 267 267 267 267 267 266 265 264 264 264 264 264 265
304 304 305 306 307 308 307 306 305 305 305 305 306 307 307 307 307 306 306 306 306 305 303 302 301 299 299 299 299 298 298 297 297 296 295 295 295 295 295 295 295 294 293 292 291 290 289 289 288 288 287 287 286 285 285 284 283 282 281 280 279 278 277 276 275 274 273 272 271 269 268 267 266 265 264 264 265 265 264 264 263 263 263 264 264
304 303 305 306 308 308 307 305 306 306 306 307 307 308 308 307 307 306 306 306 306 305 303 301 300 299 298 298 298 298 298 297 297 297 296 296 295 295 295 295 295 294 294 293 292 291 290 289 289 288 288 287 286 286 286 285 284 283 282 281 279 278 277 276 275 274 272 271 270 269 267 266 265 264 263 262 263 263 263 262 263 263 263 262 262
305 305 306 307 308 308 307 306 307 308 308 309 309 309 308 308 307 307 307 306 306 305 303 301 300 299 298 298 297 297 297 297 297 296 296 296 295 295 295 295 295 294 294 293 293 292 291 290 289 288 288 287 287 286 286 285 284 283 282 281 280 279 277 275 274 273 272 271 269 268 267 266 264 263 262 261 260 260 260 260 261 262 262 262 262
306 307 308 309 309 309 308 308 309 310 310 310 309 309 309 309 309 308 307 307 306 305 304 302 300 300 299 298 297 297 297 297 297 296 295 295 294 294 294 294 294 294 294 294 293 293 292 291 290 289 288 288 287 286 286 285 285 284 283 282 281 279 278 276 274 273 272 270 269 267 265 264 263 262 260 259 259 259 259 259 259 260 261 261 261
308 308 309 309 310 309 309 310 311 311 311 311 310 310 310 310 310 309 308 307 306 305 304 303 301 301 300 299 298 298 297 297 296 296 295 294 294 294 294 294 294 294 294 293 293 293 293 292 290 289 289 288 287 287 286 286 285 284 283 282 281 280 278 276 274 273 272 270 268 266 264 263 262 261 259 257 257 257 257 258 258 258 259 259 260
310 309 309 309 310 310 310 311 311 311 311 311 311 310 310 310 310 309 308 307 307 306 305 304 302 302 301 300 299 298 297 297 296 296 295 295 294 294 294 294 294 294 294 293 293 293 293 293 292 290 290 289 288 287 287 286 285 284 283 282 281 280 279 277 275 273 272 270 268 265 263 262 261 260 258 256 255 255 256 256 256 256 257 258 259
310 309 308 309 309 310 310 310 310 311 311 311 311 311 310 311 310 310 309 308 307 306 305 305 304 303 302 301 300 298 297 297 297 296 296 295 295 294 294 294 294 294 293 293 293 293 293 293 292 291 291 290 289 288 287 286 286 285 284 282 281 281 279 277 276 274 272 270 267 264 262 261 260 259 257 255 254 253 254 254 254 255 255 256 257
309 308 308 309 309 310 310 311 311 311 311 311 311 311 311 311 311 310 310 309 308 307 306 305 304 303 303 302 301 299 298 297 298 297 296 296 295 294 294 294 294 293 293 293 293 293 293 293 292 292 292 291 289 288 288 287 286 285 284 283 282 281 279 277 276 275 272 270 266 263 260 259 258 257 255 254 252 252 252 252 252 253 254 255 255
308 308 308 308 309 310 310 311 311 311 311 311 311 311 311 312 312 311 310 309 309 308 306 305 304 303 303 302 301 300 299 299 299 298 297 296 295 295 294 295 294 294 293 293 293 293 293 292 292 291 291 291 290 290 289 288 287 286 284 283 282 281 279 278 276 274 272 269 265 261 259 257 257 256 254 253 251 250 251 251 251 251 252 253 254
307 307 307 308 310 310 311 311 312 312 312 312 312 312 312 312 312 312 311 310 309 308 307 306 305 304 303 303 302 301 300 300 299 299 298 297 296 296 296 296 295 294 294 293 293 292 292 291 291 291 291 291 291 290 290 289 288 287 285 284 283 281 280 278 276 274 272 269 264 259 257 255 255 254 253 251 250 249 249 250 249 249 249 251 252
307 308 308 309 311 311 312 313 313 312 312 312 313 312 312 312 312 312 312 310 309 308 307 306 305 304 303 303 302 301 301 300 300 299 299 298 297 297 297 297 296 295 294 294 293 292 291 290 290 290 291 291 291 290 290 289 288 287 286 284 283 282 280 279 277 274 272 268 262 257 254 254 253 252 251 250 249 248 248 248 248 248 248 248 250
309 309 310 311 312 313 313 314 313 313 313 313 313 313 312 312 312 312 312 310 309 308 306 306 305 304 303 303 302 302 301 301 301 300 300 299 299 298 298 297 296 295 294 294 293 292 291 291 290 290 291 292 291 291 290 289 289 288 286 284 283 282 280 279 276 274 271 266 260 255 252 252 251 250 249 248 247 247 247 247 246 246 246 247 247
310 310 311 312 313 314 314 314 313 313 313 314 314 313 312 312 312 312 312 310 309 308 307 306 305 304 304 303 303 302 302 301 301 301 300 300 299 299 298 298 297 296 295 294 293 292 291 291 291 291 292 292 291 290 290 290 290 288 286 284 283 282 280 278 276 273 269 263 257 253 250 250 249 248 246 246 246 246 245 245 245 245 246 246 246
312 312 312 314 314 315 314 314 314 314 314 314 314 313 312 312 312 312 312 311 309 308 307 306 305 305 304 303 303 302 302 301 301 301 300 300 300 300 300 300 299 298 297 296 294 293 292 292 292 292 292 291 290 290 290 290 290 289 286 284 283 281 279 278 275 271 266 259 254 251 249 247 247 246 245 244 245 245 244 244 244 244 245 245 245
313 313 314 315 315 315 315 315 315 315 315 314 314 313 313 313 313 313 312 311 310 309 308 307 306 305 305 304 303 303 302 302 302 301 301 301 301 301 301 300 300 299 298 297 296 295 294 294 293 292 292 291 290 290 290 290 290 288 286 284 283 281 279 277 273 268 262 255 251 249 247 245 245 244 243 243 244 244 243 243 243 243 243 244 244
313 314 315 316 316 316 315 316 316 316 315 315 314 314 314 314 314 313 312 312 311 310 309 308 307 306 306 305 304 304 303 303 302 302 302 302 301 301 301 300 300 299 298 298 297 297 296 295 294 293 292 291 291 290 290 290 290 288 286 284 282 281 279 276 270 264 258 252 249 248 246 243 242 242 242 242 242 243 243 242 242 242 242 243 243
314 315 317 318 317 317 317 317 317 316 316 316 315 316 315 315 315 314 313 312 311 310 310 309 308 307 307 306 305 305 304 303 303 303 303 303 302 302 301 301 301 300 299 299 298 297 296 295 294 293 293 292 291 291 291 290 289 287 286 284 282 281 278 273 266 260 254 250 248 246 244 242 241 241 241 241 242 242 242 242 241 241 241 242 243
316 317 318 319 319 318 318 318 318 318 317 318 318 318 317 317 316 315 314 313 312 312 311 310 309 308 308 307 306 305 305 305 305 304 304 303 302 302 301 301 301 300 300 300 299 297 297 296 295 294 293 293 292 292 291 290 288 287 285 283 282 279 275 268 262 256 252 248 246 244 243 241 240 240 240 241 241 241 241 240 240 240 240 241 242
318 319 320 320 319 319 319 320 320 320 320 320 320 320 319 318 318 317 316 315 314 313 312 312 311 309 308 308 307 307 306 306 305 304 304 303 302 302 301 300 300 299 299 299 298 298 297 297 296 295 294 294 294 293 292 290 288 285 284 283 280 277 271 264 258 254 249 247 245 243 242 240 239 239 239 240 240 240 239 239 239 239 239 240 241
320 320 320 320 320 320 321 322 322 322 322 322 322 321 321 320 320 319 318 317 316 315 314 313 312 310 309 309 308 307 306 306 305 305 304 304 304 303 302 301 299 298 297 297 297 297 297 297 296 296 295 294 294 293 292 289 286 284 283 281 278 273 267 261 255 250 247 246 244 242 240 239 238 239 239 239 239 239 238 238 238 239 238 239 240
320 321 321 321 321 322 323 324 324 324 324 323 323 323 323 322 321 320 320 319 318 317 316 314 312 311 310 309 308 308 307 307 307 306 306 305 305 304 303 302 301 299 298 298 297 296 296 296 296 296 295 294 294 293 291 288 284 282 282 279 274 269 263 258 252 247 245 244 243 241 240 239 239 239 239 238 238 238 238 238 238 238 238 238 239
321 321 321 322 323 324 325 325 325 325 325 325 325 325 325 324 322 322 321 320 319 318 316 315 313 312 311 310 309 309 309 309 308 308 307 307 306 306 305 303 302 301 300 299 298 296 296 296 295 295 295 294 293 292 289 286 282 281 280 276 270 264 260 254 248 245 244 243 243 241 240 240 239 239 238 238 237 237 237 237 238 237 237 237 238
321 322 323 324 325 326 326 326 326 326 326 326 326 326 325 324 323 323 322 321 320 318 316 316 314 313 312 311 310 309 309 309 309 308 308 308 307 306 305 304 302 301 300 300 299 297 296 296 295 295 294 293 292 290 287 283 280 279 277 272 266 261 256 250 246 244 244 243 243 242 241 240 240 239 238 237 237 236 236 236 236 236 236 236 236
323 324 325 326 326 327 327 327 327 327 327 327 327 326 325 325 324 323 323 322 320 318 317 317 315 314 313 312 311 310 310 310 309 309 309 308 308 307 305 304 304 302 301 301 300 298 297 297 296 295 294 293 291 288 284 280 278 277 273 267 262 257 252 247 244 244 245 245 243 242 241 241 240 239 238 237 237 236 236 235 235 235 235 235 235
325 325 326 327 327 327 327 327 327 327 327 327 327 327 326 325 325 324 323 322 320 319 319 318 317 315 314 313 312 311 310 310 310 309 309 308 307 307 306 305 305 304 302 301 300 299 298 297 296 295 293 292 290 285 281 278 276 274 269 263 258 253 248 244 243 245 246 245 244 243 242 241 240 239 237 236 236 236 236 235 234 234 234 235 235
326 326 327 327 327 328 327 327 327 328 328 328 328 327 326 326 325 324 323 322 320 320 320 319 318 317 315 314 313 312 311 310 309 309 308 308 307 307 306 306 305 304 303 302 300 299 298 297 296 294 292 291 288 283 279 276 274 270 264 259 254 249 245 243 244 245 246 245 243 242 242 241 240 238 237 235 235 235 235 235 234 233 233 234 233
327 327 327 327 327 327 327 327 328 327 327 327 328 327 326 326 325 324 323 322 321 321 320 319 318 317 316 315 314 312 311 310 310 309 309 308 307 307 306 306 305 304 303 302 301 300 299 298 296 294 291 289 285 281 276 273 271 266 260 255 251 246 244 243 245 245 245 243 242 241 240 240 239 238 236 235 235 234 234 233 233 233 233 232 230
327 327 327 328 328 327 327 328 327 327 327 328 328 327 327 326 325 324 323 322 322 322 321 320 319 318 317 315 314 313 312 311 310 310 309 308 307 307 306 306 305 304 303 302 301 300 300 298 295 293 290 287 283 278 274 271 267 262 256 252 249 246 244 244 245 245 243 241 240 239 239 239 238 237 237 236 234 233 232 233 233 233 231 229 228
328 327 328 328 328 328 328 328 327 327 328 328 328 328 327 326 325 325 323 323 323 322 322 320 319 318 317 316 315 314 313 312 311 310 310 309 308 307 306 306 305 304 303 302 302 301 300 298 295 292 289 285 281 277 272 268 263 257 253 250 248 247 246 245 245 244 242 240 239 238 238 238 238 237 236 235 233 232 231 231 231 230 228 227 227
328 328 328 328 328 328 328 328 328 328 328 328 328 328 327 326 326 325 324 324 323 323 322 321 320 319 318 317 316 315 314 313 313 312 311 310 309 308 307 306 305 304 303 303 302 301 299 297 294 291 286 282 279 276 271 266 260 254 250 248 247 247 247 246 244 242 241 239 238 238 238 238 238 237 236 235 233 231 231 230 228 226 224 225 226
328 328 328 329 329 328 328 328 328 328 328 328 328 327 327 326 326 325 325 324 324 323 322 321 320 320 319 318 317 316 315 315 314 313 312 311 310 309 309 308 307 305 304 303 302 301 299 296 293 289 284 280 278 274 269 263 258 252 249 248 247 247 246 246 244 241 240 239 238 238 237 238 239 238 236 235 233 231 229 227 225 222 222 223 225
328 328 329 329 329 329 329 329 329 329 329 328 328 328 327 326 326 326 325 325 325 324 323 322 321 321 320 319 319 318 317 316 315 315 314 313 312 312 311 309 308 306 305 303 302 301 298 295 291 287 283 279 276 272 268 261 256 252 250 249 248 247 246 245 244 241 239 238 238 238 237 238 238 237 235 233 231 229 226 224 221 220 221 222 223
328 329 329 329 329 329 329 329 330 329 329 329 328 328 327 327 326 326 326 326 325 324 323 322 322 321 321 320 320 319 318 317 317 316 316 315 314 313 312 311 309 307 304 303 302 300 297 293 289 285 281 277 274 270 265 260 255 252 251 250 249 248 246 245 243 241 239 238 237 238 238 238 237 235 233 232 230 226 223 221 219 219 220 221 222
328 329 329 330 329 329 330 330 330 330 330 329 329 328 327 327 327 326 326 326 325 325 324 323 323 322 322 321 321 320 319 319 318 317 317 316 315 315 313 312 310 307 304 303 302 300 296 293 288 282 279 275 272 268 264 259 255 252 252 251 250 248 246 244 242 240 239 238 238 238 238 237 236 233 231 230 227 224 221 219 219 219 220 220 220
329 329 330 330 330 330 330 330 330 330 330 330 329 328 328 328 327 327 327 326 326 325 324 324 324 323 323 322 321 321 320 320 320 319 318 317 316 316 314 312 310 307 305 304 302 299 296 292 287 281 277 273 270 266 263 260 256 253 252 251 250 247 245 243 241 239 238 238 238 238 237 236 234 232 230 228 225 222 220 218 218 219 220 219 218
329 330 330 330 330 330 330 330 331 331 330 330 329 329 328 328 328 327 327 327 326 326 325 325 324 324 323 322 322 322 322 321 321 320 319 318 317 317 315 313 310 308 306 304 301 298 295 292 286 281 276 272 268 265 262 260 258 255 252 250 249 247 245 242 239 238 238 238 238 237 236 235 232 230 229 228 226 223 220 219 219 219 219 218 217
329 330 330 331 330 330 331 331 331 331 330 330 330 329 329 328 328 328 327 327 326 326 325 325 324 324 323 323 322 323 323 322 322 321 320 319 318 318 316 314 311 308 306 304 301 298 294 290 286 281 277 273 268 264 262 260 258 256 252 249 247 246 244 240 237 237 238 238 237 235 233 232 230 228 227 226 225 223 220 219 219 219 218 218 217
330 330 331 331 331 331 331 331 331 331 331 330 330 330 329 329 328 328 328 327 327 326 326 325 325 324 324 323 324 324 324 323 323 322 322 321 319 319 318 316 312 309 306 303 301 298 293 289 285 281 278 274 269 264 262 260 257 255 253 249 245 243 242 238 235 235 236 235 233 231 229 227 226 226 225 223 222 221 219 218 219 219 219 218 218
330 330 331 331 331 331 332 332 331 331 331 331 331 330 330 329 329 329 328 328 327 327 326 326 326 325 325 325 325 326 326 325 325 325 325 323 321 320 319 317 314 310 307 304 301 298 293 288 284 281 279 275 270 265 261 258 256 253 251 248 244 241 239 236 232 232 233 232 229 228 227 227 227 226 224 221 219 219 218 218 219 220 219 218 217
330 331 331 331 331 332 332 332 331 331 331 331 331 331 330 330 330 329 329 329 328 328 327 327 327 327 326 326 327 327 327 327 327 328 327 326 324 323 321 319 316 312 309 305 302 298 293 287 282 282 282 275 267 262 259 256 254 251 249 247 242 237 235 234 231 230 230 229 227 226 227 227 225 222 217 214 213 213 214 214 216 216 216 215 215
331 331 331 332 332 332 332 332 331 331 331 332 332 332 331 331 331 331 330 330 330 329 329 329 329 328 328 328 328 328 328 329 329 329 329 328 326 325 324 321 318 315 310 305 302 297 290 283 279 280 280 273 263 257 256 255 253 251 247 245 241 234 231 230 229 228 228 227 226 225 225 222 217 212 210 210 210 210 210 210 211 211 211 212 213
331 331 332 332 332 332 332 332 332 332 332 332 332 332 332 332 332 332 331 331 331 331 330 330 330 329 329 329 329 329 329 330 330 330 331 330 328 327 325 323 321 318 312 307 305 298 285 277 277 277 273 266 259 256 257 260 260 254 245 241 239 233 226 224 225 225 224 224 222 219 219 216 213 211 212 213 213 212 212 213 214 214 214 215 217
331 332 332 332 332 332 332 332 332 332 332 333 333 333 333 333 333 333 333 332 332 332 331 331 331 330 330 330 329 329 330 330 330 330 332 332 331 329 329 328 326 321 314 311 312 307 291 278 273 271 267 261 258 258 261 266 266 254 240 235 233 226 219 218 220 218 216 216 215 214 214 214 212 213 214 214 214 214 215 216 217 217 218 219 220
332 332 332 332 332 333 333 332 332 333 333 333 334 334 334 334 334 334 334 333 333 333 333 332 332 331 330 330 330 330 330 331 331 331 332 332 332 331 331 332 331 324 316 314 315 316 314 299 276 266 263 259 256 257 261 268 270 255 238 231 226 219 214 213 213 210 207 208 209 209 210 210 210 212 213 214 215 216 216 217 218 219 220 221 223